Tracking 27419 objects as of 10-Jun-2023
HD Live streaming from Space Station
objects crossing your sky now

STARLINK-5223

Track STARLINK-5223 now!
10-day predictions
STARLINK-5223 is classified as:


NORAD ID: 54069
Int'l Code: 2022-136U
Perigee: 546.2 km
Apogee: 547.5 km
Inclination: 53.2 °
Period: 95.4 minutes
Semi major axis: 6917 km
RCS: Unknown
Launch date: October 20, 2022
Source: United States (US)
Launch site: AIR FORCE EASTERN TEST RANGE (AFETR)
Your satellite tracking list
Your tracking list is empty




NASA's NSSDC Master Catalog

Two Line Element Set (TLE):
1 54069U 22136U   23161.11822251  .00000902  00000-0  74710-4 0  9997
2 54069  53.2150 168.9841 0000965  82.7958 277.3144 15.08842953 35829
Source of the keplerian elements: AFSPC